SWA236 KEWR-KBOS

Flight info

Callsign SWA236
Flight time 0h 38m
Altitude 21000
Route MERIT ROBUC3
Aircraft B38M/M-SDE1FGHILORVWXY/HB1

Departure

Time 2026-05-07 17:46
Airport Newark Liberty International Airport (KEWR)

Arrival

Time 2026-05-07 18:25
Airport Boston Logan International Airport (KBOS)
Time Latitude Longitude Altitude Speed Heading
2026-05-07 17:20 40.69742 -74.17440 25 ft 0 kts 305°
2026-05-07 17:36 40.69741 -74.17447 29 ft 4 kts 270°
2026-05-07 17:36 40.69732 -74.17429 24 ft 4 kts 318°
2026-05-07 17:37 40.69713 -74.17410 24 ft 3 kts 325°
2026-05-07 17:37 40.69699 -74.17391 24 ft 4 kts 272°
2026-05-07 17:37 40.69710 -74.17376 26 ft 4 kts 206°
2026-05-07 17:37 40.69734 -74.17360 25 ft 4 kts 214°
2026-05-07 17:38 40.69743 -74.17351 26 ft 1 kts 219°
2026-05-07 17:39 40.69742 -74.17351 27 ft 1 kts 209°
2026-05-07 17:40 40.69735 -74.17344 26 ft 2 kts 131°
2026-05-07 17:40 40.69734 -74.17286 26 ft 12 kts 72°
2026-05-07 17:40 40.69779 -74.17137 24 ft 19 kts 84°
2026-05-07 17:40 40.69734 -74.17047 23 ft 8 kts 169°
2026-05-07 17:41 40.69668 -74.17036 24 ft 11 kts 167°
2026-05-07 17:41 40.69574 -74.17000 23 ft 19 kts 163°
2026-05-07 17:41 40.69401 -74.16976 25 ft 30 kts 183°
2026-05-07 17:41 40.69192 -74.17056 21 ft 33 kts 206°
2026-05-07 17:42 40.68978 -74.17193 21 ft 35 kts 206°
2026-05-07 17:42 40.68760 -74.17330 26 ft 35 kts 206°
2026-05-07 17:42 40.68580 -74.17440 28 ft 27 kts 206°
2026-05-07 17:42 40.68458 -74.17520 27 ft 12 kts 207°
2026-05-07 17:43 40.68373 -74.17576 28 ft 16 kts 205°
2026-05-07 17:43 40.68255 -74.17650 22 ft 21 kts 206°
2026-05-07 17:43 40.68169 -74.17705 23 ft 11 kts 206°
2026-05-07 17:43 40.68079 -74.17760 23 ft 21 kts 208°
2026-05-07 17:44 40.67890 -74.17879 25 ft 38 kts 205°
2026-05-07 17:44 40.67667 -74.18022 25 ft 22 kts 205°
2026-05-07 17:44 40.67572 -74.17980 26 ft 13 kts 103°
2026-05-07 17:44 40.67600 -74.17906 25 ft 0 kts 30°
2026-05-07 17:46 40.67606 -74.17900 26 ft 6 kts 30°
2026-05-07 17:46 40.67913 -74.17708 20 ft 92 kts 26°
2026-05-07 17:46 40.68712 -74.17207 59 ft 156 kts 22°
2026-05-07 17:46 40.69762 -74.16496 677 ft 165 kts 24°
2026-05-07 17:47 40.70606 -74.15931 2211 ft 134 kts 25°
2026-05-07 17:47 40.71574 -74.15237 2538 ft 177 kts 30°
2026-05-07 17:47 40.72399 -74.14006 3390 ft 190 kts 57°
2026-05-07 17:47 40.73231 -74.12449 3816 ft 223 kts 44°
2026-05-07 17:48 40.74377 -74.10911 4414 ft 243 kts 44°
2026-05-07 17:48 40.75526 -74.09304 5534 ft 243 kts 43°
2026-05-07 17:48 40.76701 -74.07612 6534 ft 252 kts 43°
2026-05-07 17:48 40.77895 -74.05864 7547 ft 264 kts 43°
2026-05-07 17:49 40.79165 -74.03983 8250 ft 285 kts 43°
2026-05-07 17:49 40.80517 -74.01964 9000 ft 304 kts 43°
2026-05-07 17:49 40.81955 -73.99801 9808 ft 320 kts 43°
2026-05-07 17:49 40.83456 -73.97541 10509 ft 336 kts 43°
2026-05-07 17:50 40.85030 -73.95162 11262 ft 351 kts 44°
2026-05-07 17:50 40.86658 -73.92698 12050 ft 363 kts 44°
2026-05-07 17:50 40.88346 -73.90144 12887 ft 373 kts 45°
2026-05-07 17:50 40.90076 -73.87524 13752 ft 383 kts 45°
2026-05-07 17:51 40.91845 -73.84842 14568 ft 389 kts 45°
2026-05-07 17:51 40.93632 -73.82133 15503 ft 392 kts 45°
2026-05-07 17:51 40.95436 -73.79393 16382 ft 397 kts 45°
2026-05-07 17:51 40.97258 -73.76626 17280 ft 401 kts 45°
2026-05-07 17:52 40.99102 -73.73820 18137 ft 406 kts 45°
2026-05-07 17:52 41.00970 -73.70980 18845 ft 412 kts 45°
2026-05-07 17:52 41.02846 -73.68120 19460 ft 421 kts 44°
2026-05-07 17:52 41.04780 -73.65172 20099 ft 427 kts 44°
2026-05-07 17:53 41.06745 -73.62170 20645 ft 437 kts 44°
2026-05-07 17:53 41.08751 -73.59104 20830 ft 441 kts 44°
2026-05-07 17:53 41.10756 -73.56037 20886 ft 440 kts 44°
2026-05-07 17:53 41.12787 -73.52926 20892 ft 440 kts 44°
2026-05-07 17:54 41.14766 -73.49892 20885 ft 441 kts 44°
2026-05-07 17:54 41.16808 -73.46761 20897 ft 457 kts 44°
2026-05-07 17:54 41.18927 -73.43507 20894 ft 474 kts 45°
2026-05-07 17:54 41.21123 -73.40131 20901 ft 490 kts 45°
2026-05-07 17:55 41.23382 -73.36651 20874 ft 506 kts 45°
2026-05-07 17:55 41.25704 -73.33070 20878 ft 516 kts 45°
2026-05-07 17:55 41.28048 -73.29453 20854 ft 521 kts 45°
2026-05-07 17:55 41.30419 -73.25789 20865 ft 526 kts 45°
2026-05-07 17:56 41.32820 -73.22074 20867 ft 531 kts 45°
2026-05-07 17:56 41.35221 -73.18323 20883 ft 534 kts 48°
2026-05-07 17:56 41.37271 -73.14186 20922 ft 537 kts 62°
2026-05-07 17:56 41.38539 -73.09542 20888 ft 534 kts 79°
2026-05-07 17:57 41.39140 -73.04672 20892 ft 533 kts 83°
2026-05-07 17:57 41.39520 -73.01373 20883 ft 532 kts 83°
2026-05-07 17:57 41.40232 -72.94916 20850 ft 532 kts 84°
2026-05-07 17:57 41.40757 -72.90034 20862 ft 534 kts 84°
2026-05-07 17:58 41.41280 -72.85129 20871 ft 535 kts 84°
2026-05-07 17:58 41.41803 -72.80216 20879 ft 535 kts 84°
2026-05-07 17:58 41.42322 -72.75314 20874 ft 536 kts 84°
2026-05-07 17:58 41.42842 -72.70383 20859 ft 536 kts 84°
2026-05-07 17:59 41.43357 -72.65469 20855 ft 535 kts 85°
2026-05-07 17:59 41.43870 -72.60570 20864 ft 535 kts 85°
2026-05-07 17:59 41.44381 -72.55654 20851 ft 537 kts 85°
2026-05-07 17:59 41.44893 -72.50724 20857 ft 537 kts 85°
2026-05-07 18:00 41.45402 -72.45790 20858 ft 538 kts 85°
2026-05-07 18:00 41.45911 -72.40850 20862 ft 538 kts 85°
2026-05-07 18:00 41.46417 -72.35898 20859 ft 538 kts 85°
2026-05-07 18:00 41.46921 -72.30959 20858 ft 538 kts 85°
2026-05-07 18:01 41.47424 -72.26010 20861 ft 538 kts 85°
2026-05-07 18:01 41.48230 -72.21133 20834 ft 542 kts 72°
2026-05-07 18:01 41.49692 -72.16504 20859 ft 544 kts 65°
2026-05-07 18:01 41.51292 -72.11923 20848 ft 544 kts 64°
2026-05-07 18:02 41.54573 -72.02807 20852 ft 544 kts 63°
2026-05-07 18:02 41.56081 -71.98177 20853 ft 544 kts 68°
2026-05-07 18:02 41.57507 -71.93512 20844 ft 544 kts 68°
2026-05-07 18:03 41.58923 -71.88945 20870 ft 515 kts 68°
2026-05-07 18:03 41.60200 -71.84642 20876 ft 483 kts 69°
2026-05-07 18:03 41.61408 -71.80534 20764 ft 468 kts 69°
2026-05-07 18:03 41.62585 -71.76547 20277 ft 467 kts 69°
2026-05-07 18:04 41.63787 -71.72472 19776 ft 466 kts 69°
2026-05-07 18:04 41.64958 -71.68495 19331 ft 463 kts 69°
2026-05-07 18:04 41.66106 -71.64594 19200 ft 440 kts 69°
2026-05-07 18:04 41.67202 -71.60865 18986 ft 424 kts 69°
2026-05-07 18:05 41.68278 -71.57194 18461 ft 426 kts 69°
2026-05-07 18:05 41.69343 -71.53554 18058 ft 415 kts 70°
2026-05-07 18:05 41.70392 -71.49965 17543 ft 414 kts 69°
2026-05-07 18:05 41.71436 -71.46388 17068 ft 411 kts 70°
2026-05-07 18:06 41.72514 -71.42874 16634 ft 407 kts 63°
2026-05-07 18:06 41.73898 -71.39589 16156 ft 403 kts 58°
2026-05-07 18:06 41.75294 -71.36344 15672 ft 401 kts 59°
2026-05-07 18:06 41.76674 -71.33121 15187 ft 398 kts 59°
2026-05-07 18:07 41.78045 -71.29912 14709 ft 395 kts 58°
2026-05-07 18:07 41.79414 -71.26703 14205 ft 400 kts 58°
2026-05-07 18:07 41.80793 -71.23467 13644 ft 397 kts 58°
2026-05-07 18:07 41.82146 -71.20289 13113 ft 388 kts 58°
2026-05-07 18:08 41.83467 -71.17180 12637 ft 379 kts 58°
2026-05-07 18:08 41.84762 -71.14132 12176 ft 370 kts 58°
2026-05-07 18:08 41.86024 -71.11189 11842 ft 358 kts 57°
2026-05-07 18:08 41.87266 -71.08326 11633 ft 355 kts 57°
2026-05-07 18:09 41.88505 -71.05459 11449 ft 354 kts 57°
2026-05-07 18:09 41.89734 -71.02614 11243 ft 352 kts 57°
2026-05-07 18:09 41.90956 -70.99776 11013 ft 349 kts 57°
2026-05-07 18:09 41.92166 -70.96970 10794 ft 347 kts 57°
2026-05-07 18:10 41.93372 -70.94167 10577 ft 345 kts 57°
2026-05-07 18:10 41.94565 -70.91391 10368 ft 342 kts 57°
2026-05-07 18:10 41.95735 -70.88669 10156 ft 332 kts 56°
2026-05-07 18:10 41.96864 -70.86032 9964 ft 317 kts 56°
2026-05-07 18:11 41.97939 -70.83526 9763 ft 303 kts 56°
2026-05-07 18:11 41.98627 -70.81922 9622 ft 295 kts 56°
2026-05-07 18:11 41.99953 -70.78822 9374 ft 277 kts 55°
2026-05-07 18:11 42.00896 -70.76633 9206 ft 263 kts 52°
2026-05-07 18:12 42.01987 -70.74772 8975 ft 246 kts 40°
2026-05-07 18:12 42.03123 -70.73117 8806 ft 239 kts 40°
2026-05-07 18:12 42.04241 -70.71471 8675 ft 238 kts 40°
2026-05-07 18:12 42.05366 -70.69808 8500 ft 245 kts 41°
2026-05-07 18:13 42.06539 -70.68064 8376 ft 253 kts 41°
2026-05-07 18:13 42.07673 -70.66361 8291 ft 236 kts 41°
2026-05-07 18:13 42.08752 -70.64744 8125 ft 231 kts 41°
2026-05-07 18:13 42.09833 -70.63145 7987 ft 228 kts 37°
2026-05-07 18:14 42.11114 -70.62092 7803 ft 208 kts
2026-05-07 18:14 42.12490 -70.61617 7666 ft 206 kts
2026-05-07 18:14 42.13901 -70.61189 7510 ft 205 kts
2026-05-07 18:14 42.15282 -70.60813 7337 ft 204 kts
2026-05-07 18:15 42.16673 -70.60465 7177 ft 202 kts
2026-05-07 18:15 42.18050 -70.60138 7015 ft 200 kts
2026-05-07 18:15 42.19410 -70.59826 6851 ft 198 kts
2026-05-07 18:15 42.20767 -70.59521 6700 ft 197 kts
2026-05-07 18:16 42.22114 -70.59224 6553 ft 196 kts
2026-05-07 18:16 42.23443 -70.59190 6365 ft 186 kts 342°
2026-05-07 18:16 42.24664 -70.59676 6175 ft 182 kts 336°
2026-05-07 18:16 42.25862 -70.60241 5936 ft 183 kts 336°
2026-05-07 18:17 42.26660 -70.60621 5759 ft 183 kts 336°
2026-05-07 18:17 42.27859 -70.61199 5483 ft 182 kts 336°
2026-05-07 18:17 42.29048 -70.61785 5218 ft 182 kts 336°
2026-05-07 18:17 42.30242 -70.62372 4947 ft 183 kts 336°
2026-05-07 18:18 42.31442 -70.62979 4645 ft 185 kts 336°
2026-05-07 18:18 42.32651 -70.63597 4332 ft 187 kts 336°
2026-05-07 18:18 42.33873 -70.64224 4017 ft 188 kts 336°
2026-05-07 18:18 42.35102 -70.64850 3691 ft 190 kts 336°
2026-05-07 18:19 42.36343 -70.65491 3403 ft 191 kts 336°
2026-05-07 18:19 42.37542 -70.66251 3114 ft 189 kts 321°
2026-05-07 18:19 42.38326 -70.67574 2969 ft 176 kts 291°
2026-05-07 18:19 42.38695 -70.69130 3004 ft 178 kts 286°
2026-05-07 18:20 42.39054 -70.70823 3025 ft 194 kts 286°
2026-05-07 18:20 42.39432 -70.72610 2992 ft 201 kts 286°
2026-05-07 18:20 42.39808 -70.74443 2975 ft 204 kts 282°
2026-05-07 18:20 42.39867 -70.76357 2984 ft 205 kts 266°
2026-05-07 18:21 42.39624 -70.78260 2994 ft 206 kts 260°
2026-05-07 18:21 42.39306 -70.80157 2773 ft 207 kts 259°
2026-05-07 18:21 42.38973 -70.82045 2518 ft 207 kts 258°
2026-05-07 18:21 42.38640 -70.83938 2253 ft 206 kts 258°
2026-05-07 18:22 42.38310 -70.85813 1990 ft 202 kts 258°
2026-05-07 18:22 42.38097 -70.87018 1813 ft 197 kts 258°
2026-05-07 18:22 42.37696 -70.89278 1475 ft 171 kts 259°
2026-05-07 18:22 42.37440 -70.90734 1275 ft 147 kts 260°
2026-05-07 18:23 42.37221 -70.91975 1092 ft 127 kts 259°
2026-05-07 18:23 42.37021 -70.93113 915 ft 120 kts 260°
2026-05-07 18:23 42.36842 -70.94181 753 ft 116 kts 262°
2026-05-07 18:23 42.36664 -70.95226 583 ft 113 kts 259°
2026-05-07 18:24 42.36484 -70.96252 476 ft 112 kts 259°
2026-05-07 18:24 42.36291 -70.97348 309 ft 130 kts 258°
2026-05-07 18:24 42.36072 -70.98523 121 ft 128 kts 258°
2026-05-07 18:24 42.35868 -70.99655 34 ft 113 kts 257°
2026-05-07 18:25 42.35733 -71.00423 28 ft 51 kts 256°
2026-05-07 18:25 42.35660 -71.00828 25 ft 37 kts 257°
2026-05-07 18:25 42.35654 -71.01137 27 ft 21 kts 294°
2026-05-07 18:25 42.35672 -71.01173 27 ft 3 kts 306°
2026-05-07 18:26 42.35731 -71.01285 28 ft 22 kts 299°
2026-05-07 18:26 42.35792 -71.01511 33 ft 28 kts 288°
2026-05-07 18:26 42.35870 -71.01651 33 ft 11 kts
2026-05-07 18:26 42.35975 -71.01605 32 ft 22 kts 19°
2026-05-07 18:27 42.36062 -71.01565 31 ft 11 kts 17°
2026-05-07 18:27 42.36071 -71.01594 30 ft 6 kts 277°
2026-05-07 18:27 42.36084 -71.01662 29 ft 10 kts 288°
2026-05-07 18:27 42.36088 -71.01678 29 ft 0 kts 291°